FW9102 Weather Reports


time (UTC)temp
F
wind
direction
speed
knots
gust
knots
rain 1hr
in
rain 24hr
in
rain mn
in
humidity
%
barometer
mb
20260505200459 55 206 11.3 19.1 0.00 0.00 0.00 51 1344.8
20260505195954 54 176 5.2 29.5 0.00 0.00 0.00 50 1344.8
20260505195452 55 252 4.3 24.3 0.00 0.00 0.00 48 1344.8
20260505194949 55 196 11.3 22.6 0.00 0.00 0.00 46 1344.9
20260505194446 55 246 13.0 19.1 0.00 0.00 0.00 45 1344.9
20260505193946 55 300 5.2 23.5 0.00 0.00 0.00 47 1344.8
20260505193444 56 217 7.8 20.0 0.00 0.00 0.00 44 1344.4
20260505192941 57 279 8.7 22.6 0.00 0.00 0.00 42 1344.8
20260505192440 57 337 5.2 20.0 0.00 0.00 0.00 41 1344.5
20260505191937 55 354 4.3 25.2 0.00 0.00 0.00 43 1344.4
20260505191436 57 207 7.0 22.6 0.00 0.00 0.00 41 1344.8
20260505190932 55 191 2.6 16.5 0.00 0.00 0.00 43 1344.8
20260505190427 55 259 1.7 9.6 0.00 0.00 0.00 42 1344.7
20260505185923 56 268 7.8 22.6 0.00 0.00 0.00 41 1344.9
20260505185420 56 216 17.4 18.2 0.00 0.00 0.00 42 1344.8
20260505184916 55 208 9.6 20.9 0.00 0.00 0.00 43 1344.8
20260505184413 54 220 8.7 24.3 0.00 0.00 0.00 44 1344.8
20260505183910 55 318 7.8 16.5 0.00 0.00 0.00 43 1344.9
20260505183407 56 266 7.0 19.1 0.00 0.00 0.00 40 1345.0
20260505182904 55 198 3.5 20.9 0.00 0.00 0.00 42 1345.0
20260505182400 55 233 7.0 16.5 0.00 0.00 0.00 40 1344.8
20260505181857 55 230 6.1 16.5 0.00 0.00 0.00 40 1344.8
20260505181354 53 275 6.1 14.8 0.00 0.00 0.00 41 1344.8
20260505180851 54 306 5.2 7.0 0.00 0.00 0.00 40 1345.3
20260505180347 55 274 6.1 18.2 0.00 0.00 0.00 39 1345.0
20260505175844 54 254 5.2 13.9 0.00 0.00 0.00 40 1345.5
20260505175341 53 221 9.6 24.3 0.00 0.00 0.00 41 1345.5
20260505174837 55 233 9.6 24.3 0.00 0.00 0.00 40 1345.4
20260505174335 56 273 11.3 13.0 0.00 0.00 0.00 38 1345.2
20260505173830 55 235 5.2 12.2 0.00 0.00 0.00 39 1345.3
20260505173327 55 269 17.4 17.4 0.00 0.00 0.00 39 1345.4
20260505172824 53 315 3.5 8.7 0.00 0.00 0.00 40 1345.5
20260505172322 53 337 5.2 9.6 0.00 0.00 0.00 41 1345.7
20260505171821 53 270 5.2 15.6 0.00 0.00 0.00 41 1345.4
20260505171319 53 225 9.6 11.3 0.00 0.00 0.00 41 1345.4
20260505170815 53 249 6.1 15.6 0.00 0.00 0.00 41 1345.4
20260505170312 52 293 15.6 15.6 0.00 0.00 0.00 42 1345.8
20260505165807 52 306 6.1 14.8 0.00 0.00 0.00 41 1346.0
20260505165306 51 265 6.1 19.1 0.00 0.00 0.00 43 1346.0
20260505164759 51 281 5.2 11.3 0.00 0.00 0.00 42 1345.9
20260505164256 51 267 7.0 18.2 0.00 0.00 0.00 43 1345.9
20260505163754 50 225 2.6 13.9 0.00 0.00 0.00 44 1345.8
20260505163253 50 233 3.5 15.6 0.00 0.00 0.00 45 1345.8
20260505162750 50 176 4.3 14.8 0.00 0.00 0.00 45 1346.0
20260505162247 50 272 7.8 17.4 0.00 0.00 0.00 45 1346.2
20260505161744 50 232 13.0 20.9 0.00 0.00 0.00 45 1346.0
20260505161241 50 243 7.8 18.2 0.00 0.00 0.00 45 1346.2
20260505160738 51 265 6.1 26.1 0.00 0.00 0.00 43 1345.9
20260505160236 51 348 7.8 19.1 0.00 0.00 0.00 43 1346.0
20260505153215 49 250 7.8 19.1 0.00 0.00 0.00 47 1346.2
20260505152712 49 209 4.3 13.0 0.00 0.00 0.00 47 1346.2
20260505152208 48 285 7.0 19.1 0.00 0.00 0.00 48 1346.3
20260505151703 49 273 7.0 14.8 0.00 0.00 0.00 48 1346.2
20260505151201 49 266 5.2 18.2 0.00 0.00 0.00 48 1346.4
20260505150657 50 213 4.3 16.5 0.00 0.00 0.00 47 1346.3
20260505150154 50 328 7.8 16.5 0.00 0.00 0.00 46 1346.2
20260505140622 48 218 4.3 20.0 0.00 0.00 0.00 47 1346.5
20260505140119 49 277 4.3 20.0 0.00 0.00 0.00 46 1346.7
20260505125036 44 257 1.7 7.8 0.00 0.00 0.00 43 1346.3
20260505124533 44 246 3.5 7.0 0.00 0.00 0.00 43 1346.2
20260505124029 44 261 2.6 7.0 0.00 0.00 0.00 43 1346.0
20260505123525 44 231 5.2 6.1 0.00 0.00 0.00 43 1346.2
20260505123021 44 328 5.2 6.1 0.00 0.00 0.00 43 1346.3
20260505122519 44 328 3.5 7.8 0.00 0.00 0.00 43 1346.0
20260505122016 44 329 0.0 5.2 0.00 0.00 0.00 42 1346.0
20260505121512 44 14 1.7 1.7 0.00 0.00 0.00 42 1345.9
20260505121009 44 292 1.7 3.5 0.00 0.00 0.00 42 1346.0
20260505120506 44 139 1.7 3.5 0.00 0.00 0.00 42 1345.8
20260505120006 45 254 0.0 7.8 0.00 0.00 0.00 41 1345.7
20260505115501 46 349 0.9 4.3 0.00 0.00 0.00 41 1345.3
20260505114959 46 56 4.3 10.4 0.00 0.00 0.00 40 1345.5
20260505114455 46 284 4.3 7.0 0.00 0.00 0.00 40 1345.8
20260505113952 46 248 10.4 11.3 0.00 0.00 0.00 40 1345.7
20260505113449 46 331 3.5 11.3 0.00 0.00 0.00 41 1345.9
20260505112944 46 43 3.5 4.3 0.00 0.00 0.00 42 1345.7
20260505112441 46 187 0.0 8.7 0.00 0.00 0.00 41 1345.4
20260505111938 46 189 1.7 11.3 0.00 0.00 0.00 42 1345.3
20260505111432 46 295 0.0 12.2 0.00 0.00 0.00 41 1345.3
20260505110929 46 255 6.1 11.3 0.00 0.00 0.00 41 1345.5
20260505110426 46 259 7.0 9.6 0.00 0.00 0.00 42 1345.3
20260505101856 47 218 2.6 9.6 0.00 0.00 0.00 43 1345.5
20260505101351 47 256 2.6 9.6 0.00 0.00 0.00 42 1345.3
20260505100847 47 201 3.5 14.8 0.00 0.00 0.00 42 1345.5
20260505100344 47 233 5.2 14.8 0.00 0.00 0.00 42 1345.3
20260505095840 47 221 5.2 10.4 0.00 0.00 0.00 42 1345.5
20260505095338 48 272 4.3 13.9 0.00 0.00 0.00 41 1345.4
20260505094833 48 311 4.3 8.7 0.00 0.00 0.00 41 1345.5
20260505094331 48 266 2.6 13.0 0.00 0.00 0.00 40 1345.2
20260505093826 48 221 18.2 18.2 0.00 0.00 0.00 40 1345.5
20260505093324 48 223 9.6 12.2 0.00 0.00 0.00 39 1345.5
20260505092820 48 203 6.1 12.2 0.00 0.00 0.00 39 1345.8
20260505092319 49 208 3.5 12.2 0.00 0.00 0.00 38 1345.5
20260505091816 49 285 7.0 13.0 0.00 0.00 0.00 38 1345.0
20260505091314 49 221 1.7 13.0 0.00 0.00 0.00 37 1345.5
20260505090812 49 237 2.6 7.8 0.00 0.00 0.00 37 1345.8
20260505090310 50 265 4.3 7.8 0.00 0.00 0.00 36 1345.8
20260505085806 50 260 6.1 7.0 0.00 0.00 0.00 35 1345.9
20260505085305 50 286 2.6 7.0 0.00 0.00 0.00 35 1346.0
20260505084802 50 228 4.3 8.7 0.00 0.00 0.00 35 1345.8
20260505084301 50 282 3.5 6.1 0.00 0.00 0.00 35 1345.9
20260505083757 50 347 2.6 13.9 0.00 0.00 0.00 34 1345.8
20260505083254 50 255 0.9 11.3 0.00 0.00 0.00 34 1345.9
20260505082750 51 304 14.8 16.5 0.00 0.00 0.00 34 1346.2
20260505082247 51 293 9.6 16.5 0.00 0.00 0.00 34 1346.2
20260505081743 51 288 12.2 15.6 0.00 0.00 0.00 34 1346.5
20260505081241 51 279 2.6 15.6 0.00 0.00 0.00 34 1346.3
20260505080737 51 283 5.2 15.6 0.00 0.00 0.00 33 1346.4
20260505080233 51 306 4.3 7.8 0.00 0.00 0.00 33 1346.5
20260505075729 51 273 3.5 17.4 0.00 0.00 0.00 33 1346.7
20260505075226 51 289 7.8 13.0 0.00 0.00 0.00 32 1346.5
20260505074723 51 272 12.2 12.2 0.00 0.00 0.00 32 1346.7
20260505074220 51 251 3.5 11.3 0.00 0.00 0.00 32 1346.2
20260505073718 52 0 3.5 13.9 0.00 0.00 0.00 32 1346.3
20260505073216 52 307 2.6 13.0 0.00 0.00 0.00 32 1346.2
20260505072711 52 280 5.2 11.3 0.00 0.00 0.00 32 1346.3
20260505072208 52 221 0.0 6.1 0.00 0.00 0.00 32 1346.4
20260505071703 52 27 6.1 12.2 0.00 0.00 0.00 32 1346.2
20260505071201 52 281 3.5 13.9 0.00 0.00 0.00 31 1346.2
20260505070659 52 318 4.3 13.9 0.00 0.00 0.00 32 1346.0
20260505070155 52 276 10.4 13.0 0.00 0.00 0.00 32 1346.0
20260505065651 52 215 5.2 16.5 0.00 0.00 0.00 32 1345.9
20260505065148 52 270 10.4 19.1 0.00 0.00 0.00 31 1345.8
20260505064644 52 209 10.4 12.2 0.00 0.00 0.00 32 1346.0
20260505064142 52 263 3.5 12.2 0.00 0.00 0.00 32 1346.0
20260505063640 52 315 4.3 13.9 0.00 0.00 0.00 32 1346.3
20260505063136 53 242 13.0 13.0 0.00 0.00 0.00 32 1346.0
20260505062633 53 213 9.6 18.2 0.00 0.00 0.00 31 1346.0
20260505062130 53 207 0.0 10.4 0.00 0.00 0.00 31 1345.9
20260505061626 53 225 7.0 15.6 0.00 0.00 0.00 31 1346.2
20260505061125 54 275 3.5 16.5 0.00 0.00 0.00 31 1345.9
20260505060622 54 260 13.0 22.6 0.00 0.00 0.00 31 1346.0
20260505060119 54 250 11.3 20.9 0.00 0.00 0.00 31 1346.2
20260505055614 54 237 7.8 19.1 0.00 0.00 0.00 31 1346.2
20260505055111 54 275 2.6 13.0 0.00 0.00 0.00 31 1346.4
20260505054608 54 229 10.4 14.8 0.00 0.00 0.00 31 1346.5
20260505054106 54 242 7.0 15.6 0.00 0.00 0.00 31 1346.4
20260505053603 54 246 5.2 12.2 0.00 0.00 0.00 32 1346.5
20260505053059 54 225 4.3 14.8 0.00 0.00 0.00 32 1346.0
20260505052556 53 223 5.2 9.6 0.00 0.00 0.00 33 1346.3
20260505052054 53 221 7.0 10.4 0.00 0.00 0.00 33 1346.4
20260505051551 52 159 1.7 5.2 0.00 0.00 0.00 33 1346.3
20260505051049 52 194 3.5 4.3 0.00 0.00 0.00 34 1346.4
20260505050547 52 204 1.7 4.3 0.00 0.00 0.00 33 1346.4
20260505041514 54 319 1.7 7.0 0.00 0.00 0.00 30 1346.8
20260505041012 54 216 2.6 7.8 0.00 0.00 0.00 30 1346.4
20260505040509 54 232 3.5 7.8 0.00 0.00 0.00 29 1346.4
20260505040006 55 228 6.1 13.0 0.00 0.00 0.00 29 1346.3
20260505035502 55 239 6.1 13.0 0.00 0.00 0.00 29 1346.3
20260505034959 55 319 5.2 11.3 0.00 0.00 0.00 28 1346.5
20260505034455 55 247 1.7 7.8 0.00 0.00 0.00 28 1346.8
20260505033953 55 241 8.7 10.4 0.00 0.00 0.00 28 1346.5
20260505033449 55 276 2.6 16.5 0.00 0.00 0.00 28 1346.3
20260505032948 55 270 4.3 7.8 0.00 0.00 0.00 27 1346.3
20260505032444 55 225 4.3 9.6 0.00 0.00 0.00 27 1346.3
20260505031941 56 277 5.2 7.0 0.00 0.00 0.00 26 1346.0
20260505031438 56 216 11.3 11.3 0.00 0.00 0.00 26 1346.2
20260505030935 56 242 3.5 14.8 0.00 0.00 0.00 25 1346.0
20260505030431 56 247 5.2 10.4 0.00 0.00 0.00 25 1346.3
20260505025926 56 206 1.7 5.2 0.00 0.00 0.00 25 1346.0
20260505025424 57 270 2.6 7.8 0.00 0.00 0.00 24 1345.9
20260505024922 57 226 6.1 12.2 0.00 0.00 0.00 24 1345.7
20260505024419 57 303 9.6 11.3 0.00 0.00 0.00 24 1345.8
20260505023916 57 237 2.6 13.0 0.00 0.00 0.00 24 1345.4
20260505023413 57 234 5.2 13.9 0.00 0.00 0.00 23 1345.3
20260505022911 58 305 2.6 13.9 0.00 0.00 0.00 23 1345.5
20260505022408 58 302 4.3 16.5 0.00 0.00 0.00 23 1345.7
20260505021905 58 296 13.0 13.0 0.00 0.00 0.00 22 1345.7
20260505021401 58 281 14.8 14.8 0.00 0.00 0.00 22 1345.4
20260505020857 59 236 12.2 14.8 0.00 0.00 0.00 21 1345.5
20260505020353 59 228 4.3 13.0 0.00 0.00 0.00 21 1345.5
20260505015850 59 241 4.3 16.5 0.00 0.00 0.00 21 1345.5
20260505015347 59 335 4.3 15.6 0.00 0.00 0.00 21 1345.3
20260505014844 59 313 5.2 12.2 0.00 0.00 0.00 20 1345.5
20260505014341 59 254 8.7 13.9 0.00 0.00 0.00 20 1345.2
20260505013838 59 292 3.5 14.8 0.00 0.00 0.00 20 1345.2
20260505013335 60 276 3.5 20.9 0.00 0.00 0.00 20 1345.0
20260505012833 60 246 13.9 13.9 0.00 0.00 0.00 20 1344.8
20260505012331 60 325 9.6 19.1 0.00 0.00 0.00 20 1345.0
20260505011826 60 274 8.7 19.1 0.00 0.00 0.00 20 1345.0
20260505011324 60 216 5.2 20.0 0.00 0.00 0.00 20 1345.0
20260505010819 60 270 5.2 12.2 0.00 0.00 0.00 20 1344.9
20260505010315 60 279 19.1 20.0 0.00 0.00 0.00 19 1345.2
20260505005812 61 225 2.6 17.4 0.00 0.00 0.00 19 1345.2
20260505005309 61 250 20.0 25.2 0.00 0.00 0.00 19 1345.3
20260505004807 61 230 19.1 27.8 0.00 0.00 0.00 19 1345.4
20260505004302 61 253 7.0 22.6 0.00 0.00 0.00 19 1345.2
20260505003800 61 258 11.3 17.4 0.00 0.00 0.00 19 1345.3
20260505003257 62 305 11.3 14.8 0.00 0.00 0.00 20 1345.0
20260505002753 62 255 5.2 23.5 0.00 0.00 0.00 20 1345.0
20260505002251 62 282 2.6 22.6 0.00 0.00 0.00 21 1345.3
20260505001749 61 272 7.0 20.0 0.00 0.00 0.00 21 1345.2
20260505001246 62 241 8.7 18.2 0.00 0.00 0.00 21 1345.4
20260505000742 62 337 3.5 18.2 0.00 0.00 0.00 21 1345.8
20260505000241 62 280 7.8 14.8 0.00 0.00 0.00 21 1345.3
20260504235737 62 232 8.7 26.1 0.00 0.00 0.00 21 1345.4
20260504235233 62 278 9.6 22.6 0.00 0.00 0.00 21 1345.5
20260504234731 63 248 10.4 19.1 0.00 0.00 0.00 20 1345.4
20260504234228 64 272 7.0 17.4 0.00 0.00 0.00 20 1345.5
20260504233724 64 247 6.1 18.2 0.00 0.00 0.00 20 1345.4
20260504233219 63 271 7.8 22.6 0.00 0.00 0.00 21 1345.5
20260504232717 63 353 11.3 15.6 0.00 0.00 0.00 20 1345.4
20260504232214 64 204 7.0 20.0 0.00 0.00 0.00 20 1345.8
20260504231711 64 270 2.6 13.9 0.00 0.00 0.00 20 1345.4
20260504231207 64 262 7.8 13.9 0.00 0.00 0.00 20 1345.4
20260504230703 64 331 2.6 20.9 0.00 0.00 0.00 20 1345.9
20260504230202 64 262 9.6 19.1 0.00 0.00 0.00 20 1346.2
20260504225700 65 173 2.6 15.6 0.00 0.00 0.00 19 1345.5
20260504225155 63 207 7.8 22.6 0.00 0.00 0.00 20 1345.8
20260504224653 64 201 13.9 20.0 0.00 0.00 0.00 21 1346.0
20260504224150 63 230 6.1 20.0 0.00 0.00 0.00 21 1345.4
20260504223647 62 288 7.0 20.9 0.00 0.00 0.00 21 1345.9
20260504223142 62 208 6.1 18.2 0.00 0.00 0.00 21 1346.2
20260504222640 62 229 5.2 25.2 0.00 0.00 0.00 21 1346.0
20260504222136 62 239 9.6 20.9 0.00 0.00 0.00 20 1346.2
20260504221634 63 216 8.7 14.8 0.00 0.00 0.00 20 1346.3
20260504221131 62 237 8.7 21.7 0.00 0.00 0.00 20 1346.3
20260504220627 62 240 10.4 26.1 0.00 0.00 0.00 20 1346.7
20260504220125 63 216 15.6 23.5 0.00 0.00 0.00 19 1346.3
20260504215621 63 301 6.1 19.1 0.00 0.00 0.00 19 1346.3
20260504215119 63 221 16.5 26.1 0.00 0.00 0.00 19 1346.4
20260504214614 63 237 6.1 18.2 0.00 0.00 0.00 19 1346.2
20260504214111 64 213 9.6 23.5 0.00 0.00 0.00 18 1346.4
20260504213607 63 284 5.2 13.0 0.00 0.00 0.00 18 1346.5
20260504213104 62 225 2.6 24.3 0.00 0.00 0.00 19 1346.5
20260504212600 63 238 17.4 35.6 0.00 0.00 0.00 18 1346.8
20260504212058 65 307 13.9 34.8 0.00 0.00 0.00 17 1346.7
20260504211554 64 317 11.3 26.1 0.00 0.00 0.00 17 1347.0
20260504211051 64 265 17.4 22.6 0.00 0.00 0.00 16 1347.3
20260504210549 65 198 13.0 31.3 0.00 0.00 0.00 15 1347.0
20260504210045 65 271 13.0 33.9 0.00 0.00 0.00 15 1346.9
20260504205543 64 296 12.2 23.5 0.00 0.00 0.00 16 1347.3
20260504205041 66 222 15.6 26.1 0.00 0.00 0.00 15 1347.3
20260504204538 64 276 13.0 28.7 0.00 0.00 0.00 16 1347.3
20260504204037 63 283 13.0 22.6 0.00 0.00 0.00 16 1347.2
20260504203535 65 204 15.6 30.4 0.00 0.00 0.00 16 1347.3
20260504203032 63 272 8.7 29.5 0.00 0.00 0.00 16 1347.4
20260504202527 63 231 8.7 24.3 0.00 0.00 0.00 17 1347.8
20260504202025 64 283 11.3 17.4 0.00 0.00 0.00 17 1347.5
20260504201521 64 273 13.9 22.6 0.00 0.00 0.00 17 1347.8
20260504201019 63 268 17.4 25.2 0.00 0.00 0.00 17 1347.7